Torna al catalogo

COSMOS 2251 DEB

AttivoVLEO
NORAD 40797·DEBRIS·🇷🇺 Russia

Lanciato Jun 16, 1993 da Plesetsk Cosmodrome

Loading…

Prossimi Passaggi (prossime 24 ore)

TLE

ObsoletoSource: Space-Track

Epoca: Sep 9, 2026, 06:06 UTC

1 40797U 93036BWA 26252.25451251  .00011465  00000-0  52481-3 0  9990
2 40797  73.9304 248.3901 0056197  92.9429 267.8201 15.19124923687425

Traccia COSMOS 2251 DEB in tempo reale con AllMySat

Download on the App Store